TV
NORAD ID: 28644
Int'l Code: 2005-015A
Perigee: 35,789.3 km
Apogee: 35,798.2 km
Inclination: 0.0 °
Period: 1,436.1 minutes
Semi major axis: 42164 km
Launch date: April 26, 2005
Source: United States (US)
Comments: 17 Ku-band transponders; high definition.
Two Line Element Set (TLE):
1 28644U 05015A 13143.11108441 -.00000101 00000-0 10000-3 0 6283
2 28644 000.0434 137.2001 0001057 214.8549 185.9057 01.00271685 29654
Source: AFSPC
NASA's NSSDC Master Catalog entry for SPACEWAY 1